Temperature
11 11 11 12 13 13 14 13 13 15 16 15 14 14 15 16 17 17 18 18 18 18 18 18 19 19 19 19 20 20 19 19 18 17 17 16 15 14 14 14 13 13 13 13
10 10 12 14 14 14 13 12 12 14 15 14 13 13 14 15 15 16 17 17 18 18 18 18 18 18 18 19 19 19 19 18 18 17 18 17 15 14 14 14 13 13 13 12
10 11 13 13 12 12 12 11 12 12 12 13 12 12 14 16 16 16 17 17 17 17 17 17 17 18 18 18 18 18 18 18 17 17 16 14 14 14 13 13 13 13 12 12
10 12 12 12 11 12 11 13 12 12 10 10 12 10 13 15 16 16 17 17 17 17 17 17 17 17 17 18 18 18 18 17 17 16 15 14 14 14 14 13 13 13 12 12
10 11 11 10 11 12 11 11 11 11 10 8 9 9 11 14 14 15 16 17 17 17 17 17 17 17 17 17 17 17 17 17 17 16 15 14 15 15 14 13 13 12 12 11
11 11 11 11 11 11 11 10 9 9 8 6 8 9 10 13 15 16 17 17 17 17 17 17 17 16 16 17 17 17 17 17 16 15 14 14 14 14 14 13 12 12 11 11
9 10 10 10 10 10 10 8 7 7 7 7 10 11 11 15 16 16 16 17 17 17 16 16 16 15 15 16 16 16 16 16 16 15 13 13 12 13 14 13 12 12 11 11
7 8 9 9 9 9 9 8 7 8 9 10 12 11 13 16 16 17 17 17 16 16 16 15 15 14 14 15 15 15 15 15 15 14 12 12 11 12 12 12 12 12 12 11
8 9 10 10 9 10 8 8 9 8 8 7 9 11 13 15 15 15 15 16 16 16 15 15 14 14 14 14 14 14 14 14 13 12 12 11 11 11 11 11 11 12 12 11
10 9 10 10 10 9 10 9 7 6 5 7 9 11 12 14 14 14 14 14 15 15 15 14 13 13 13 13 13 13 13 13 12 11 11 11 11 11 11 11 11 11 11 11
10 8 9 9 8 8 8 8 8 7 7 6 7 10 14 13 13 13 13 14 15 14 14 13 12 12 12 12 13 13 12 12 11 11 10 10 10 10 10 10 11 11 11 10
10 8 7 8 9 10 9 8 8 6 6 7 7 9 13 13 13 12 12 13 13 13 13 12 12 11 11 11 12 12 11 11 11 10 10 10 10 10 10 10 10 10 10 9
10 8 6 7 8 9 9 9 9 8 6 6 7 8 12 12 12 11 11 11 11 12 12 11 11 10 10 10 11 11 10 10 10 10 9 9 9 9 9 9 9 9 9 8
10 8 6 8 8 8 7 8 8 7 6 6 7 9 10 11 11 10 9 9 9 10 10 10 10 9 9 9 9 9 9 9 9 9 9 8 8 8 8 8 8 8 8 8
9 7 6 7 8 8 7 8 8 7 7 7 7 8 9 10 9 9 9 8 8 9 9 9 8 8 8 8 8 8 8 8 8 8 7 7 6 7 7 7 7 7 7 7
8 7 7 6 8 9 8 9 9 9 9 8 8 8 10 10 9 8 8 7 7 7 8 8 8 8 7 7 7 7 7 7 7 6 6 5 5 6 6 6 6 7 7 6
8 7 6 7 9 9 9 10 9 9 9 9 8 9 10 9 8 7 7 6 6 7 7 7 7 6 6 6 6 6 5 5 4 4 4 4 4 4 4 5 6 6 5 5
8 7 6 7 7 8 11 11 10 9 10 10 10 10 9 8 7 6 5 5 5 6 6 6 5 5 5 5 5 4 3 3 2 2 2 3 3 4 4 5 5 5 4 4
8 7 7 7 7 9 11 12 11 9 9 11 10 9 9 9 7 5 4 4 4 4 4 4 4 3 3 3 2 2 1 1 1 1 2 3 3 4 4 5 4 4 3 3
8 8 7 7 8 9 12 12 11 10 10 11 9 9 8 8 8 5 3 2 2 2 2 2 2 1 1 0 0 0 0 1 2 2 3 3 3 4 4 4 3 3 2 1
8 7 7 7 7 9 12 12 11 10 10 10 9 8 7 5 4 3 2 1 1 1 1 1 0 -0 -0 -0 1 1 2 3 3 3 3 3 3 3 3 3 2 1 1 1
9 8 8 8 8 9 13 12 11 10 10 9 8 7 5 3 3 2 1 1 1 0 0 0 0 0 0 1 2 3 3 3 3 3 3 3 3 2 2 1 1 0 0 -0
10 11 10 10 10 12 13 12 11 9 8 8 7 6 5 3 2 2 1 1 1 1 0 0 1 1 1 1 3 4 3 3 3 3 3 2 2 1 1 0 0 -0 -1 -1
11 11 10 10 11 12 12 11 9 7 6 6 6 5 5 3 2 1 1 1 1 1 1 1 2 3 2 2 3 4 3 2 2 2 2 1 1 0 -0 -0 -1 -1 -2 -2
10 10 9 9 11 12 10 9 8 7 5 5 5 5 4 3 2 2 1 1 1 1 2 3 4 4 3 3 3 2 2 2 2 1 1 0 -0 -0 -1 -1 -2 -2 -2 -3
9 10 9 10 11 11 10 9 8 6 5 4 4 3 3 3 2 1 1 1 1 2 3 4 4 4 3 3 2 1 1 1 1 1 -0 -0 -1 -1 -1 -2 -2 -3 -3 -4
Wind_Speed
6 5 8 10 13 11 9 9 11 10 9 6 10 14 13 13 14 14 13 12 12 12 11 10 10 10 10 10 10 10 12 13 13 12 12 12 9 8 7 8 12 14 15 15
5 9 10 7 5 5 7 9 11 11 8 9 12 18 16 18 19 18 15 14 13 13 12 13 12 11 11 11 10 10 10 13 13 12 11 9 6 6 6 7 8 12 14 14
8 2 6 9 6 5 8 9 9 10 13 9 11 13 13 13 17 16 15 14 12 13 13 13 13 13 12 12 11 10 10 11 13 13 10 8 7 6 4 6 6 7 11 12
9 5 2 5 7 7 6 4 6 8 7 6 6 8 8 8 8 8 10 11 11 11 12 12 12 13 13 13 12 11 11 11 13 15 14 16 12 9 7 7 7 8 8 10
7 6 6 6 6 5 2 6 6 7 7 7 6 8 11 8 11 11 11 11 11 11 11 11 11 12 11 11 12 12 12 12 14 15 16 16 11 8 10 11 11 8 8 9
3 3 3 4 3 3 2 1 5 5 4 7 8 9 11 5 9 6 4 4 5 7 7 6 5 5 7 7 8 10 13 13 14 15 16 16 15 15 17 16 14 11 9 9
4 5 4 2 2 2 4 3 3 4 5 9 10 10 11 7 6 5 6 6 6 5 4 3 3 5 6 8 7 8 11 13 15 15 16 15 15 17 19 18 16 15 12 10
6 6 11 8 7 6 9 6 4 4 5 4 5 10 8 7 7 7 7 7 7 7 6 3 2 4 6 8 7 8 10 11 14 15 14 14 14 14 13 13 13 13 12 11
7 3 10 10 10 6 7 7 5 5 7 7 8 8 9 11 13 10 9 9 10 9 7 3 2 3 6 7 7 8 10 11 13 14 13 13 15 15 15 13 12 11 12 13
5 4 7 7 7 8 6 5 4 3 4 7 9 9 6 6 8 9 6 4 6 7 5 1 2 4 6 7 6 8 10 11 12 13 13 12 14 15 16 14 14 15 15 15
2 4 4 6 8 10 9 5 5 5 5 5 7 6 3 9 10 10 8 6 6 3 1 1 2 4 6 7 5 7 10 11 13 14 14 14 14 15 15 13 14 15 15 15
6 3 5 8 8 10 10 10 9 5 7 6 7 9 5 7 6 8 8 8 6 3 1 2 1 3 5 7 5 6 9 12 14 15 15 14 14 15 15 14 15 15 15 14
8 5 3 4 6 7 6 9 12 9 7 8 11 13 6 7 9 10 12 13 12 10 5 3 2 2 4 6 3 4 9 14 16 16 16 15 15 15 15 16 16 15 15 14
7 5 6 4 1 1 6 9 10 9 10 13 18 26 26 24 20 15 14 16 15 13 8 5 3 0 2 3 2 9 13 15 16 16 15 15 15 15 15 16 15 15 15 13
3 3 6 10 14 12 14 16 15 17 18 17 23 29 31 26 21 14 11 12 12 10 8 5 3 2 2 4 9 12 13 14 15 15 15 15 15 15 16 16 15 14 13 13
4 3 4 7 13 14 17 18 17 16 16 17 22 25 19 15 12 9 8 9 10 9 7 4 4 5 8 10 11 12 13 12 13 15 15 16 17 16 15 15 14 14 13 12
5 3 3 5 7 10 8 5 5 7 10 12 14 14 16 15 10 7 7 8 7 6 4 3 7 9 11 12 12 12 12 13 14 15 17 17 17 16 14 15 15 14 12 11
6 4 2 5 8 4 2 7 7 9 13 12 12 13 11 8 4 7 9 8 6 3 3 8 11 12 12 12 12 13 14 14 15 16 17 17 17 16 13 13 13 12 9 9
7 4 2 3 5 7 4 2 3 5 7 5 7 10 9 4 2 7 12 10 8 9 11 12 13 14 13 13 14 16 16 15 16 17 16 15 14 14 14 14 12 9 9 8
7 6 4 3 4 4 2 1 2 2 5 4 7 9 9 6 3 5 10 11 12 13 13 13 14 15 15 14 15 17 17 16 16 15 15 14 13 13 13 12 10 8 8 7
5 6 6 5 5 7 5 3 3 3 5 8 7 7 6 4 4 5 8 11 12 13 14 14 14 14 13 14 15 16 16 16 15 14 14 13 12 12 12 10 8 8 6 5
7 6 6 5 6 7 3 4 4 4 5 6 5 5 5 7 8 9 9 10 11 12 13 13 13 13 12 13 15 17 16 14 14 14 14 12 11 10 10 9 7 6 5 4
6 5 3 6 7 6 5 2 3 5 5 5 4 6 8 7 8 9 10 9 9 10 11 11 13 15 13 11 11 17 14 13 14 14 13 11 10 9 8 7 7 5 4 4
2 1 1 5 8 8 2 5 6 6 5 5 4 6 7 8 9 9 9 9 9 9 10 11 13 15 14 11 11 13 13 12 14 14 11 9 8 8 7 6 5 4 4 4
3 1 3 6 9 5 5 5 4 5 6 7 7 7 8 9 10 9 9 9 9 10 10 10 13 15 14 12 12 11 11 12 13 11 9 8 7 7 6 5 4 5 4 4
6 7 6 5 2 3 2 4 5 6 7 7 7 8 8 8 10 10 9 8 10 11 11 12 13 15 14 13 12 10 9 10 11 9 7 6 5 5 4 4 2 2 2 2
Wind_Direction
183 199 201 201 208 242 301 315 305 304 327 312 271 271 269 268 264 255 245 241 245 251 255 249 240 239 240 234 222 193 174 172 166 171 181 190 191 168 146 136 138 140 144 143
162 233 230 239 231 242 276 283 284 291 302 308 291 282 273 260 254 248 246 243 241 245 250 250 243 234 234 236 223 199 178 174 171 175 182 184 155 126 114 121 129 141 146 146
199 209 227 233 232 232 250 258 275 295 321 307 291 284 257 250 237 236 237 238 241 245 249 251 247 237 228 229 226 208 191 179 172 166 164 142 113 98 101 118 131 140 145 142
228 205 170 208 219 222 255 280 285 289 295 291 308 296 269 284 285 246 221 215 223 239 247 249 247 244 233 223 219 213 197 182 169 166 170 166 167 161 161 149 140 139 139 137
211 220 205 225 231 225 244 21 342 311 296 290 249 257 272 230 254 247 236 220 214 228 241 245 244 241 238 227 215 207 195 179 167 170 175 174 168 145 135 136 142 144 140 131
211 164 210 231 242 243 219 48 283 260 274 266 220 219 273 224 246 264 288 273 233 235 246 255 268 275 263 250 228 207 190 174 167 171 175 173 167 154 148 151 154 152 143 132
244 214 198 276 199 195 197 184 253 223 227 246 226 224 251 253 265 274 275 276 279 280 284 296 328 313 291 268 240 210 187 170 167 172 176 175 170 157 157 157 158 154 150 144
195 240 199 198 206 180 195 198 225 259 259 278 251 241 253 255 253 246 236 232 241 253 261 278 326 317 298 275 241 202 182 167 168 175 174 174 158 153 156 157 158 156 153 146
192 231 148 176 205 208 176 217 276 315 302 282 254 259 278 262 264 256 241 226 226 234 231 241 300 309 299 283 248 201 181 173 173 172 166 162 150 149 150 152 152 147 142 142
183 197 166 165 176 239 242 198 197 213 266 276 270 256 261 343 0 349 323 280 249 242 232 255 345 332 307 287 249 198 184 178 170 163 154 149 144 142 146 151 150 143 141 140
203 173 169 161 205 204 206 223 211 234 251 268 287 265 324 332 319 311 305 298 279 260 156 27 345 337 320 303 255 197 186 173 158 144 136 135 136 139 143 144 139 137 136 136
195 189 228 220 220 221 205 202 198 218 239 233 268 274 284 296 332 332 322 318 315 303 291 296 333 348 321 299 263 203 179 155 138 130 130 130 133 135 136 133 130 130 130 127
175 189 237 218 215 219 235 230 226 235 260 253 258 268 277 317 329 325 310 304 302 295 287 302 348 11 314 293 270 161 137 127 124 125 127 131 133 133 132 130 128 127 125 122
165 198 223 246 154 145 236 246 244 241 253 260 256 272 285 292 297 292 280 280 282 286 296 309 322 4 270 276 109 113 114 116 119 123 130 133 132 130 127 124 123 123 122 118
170 241 242 259 275 274 263 262 256 248 252 263 274 280 287 294 297 291 278 273 277 284 287 280 251 190 163 106 102 107 109 113 120 126 130 128 124 121 118 118 119 117 113 109
192 252 276 265 259 259 261 260 260 260 258 260 273 283 288 296 296 294 291 290 288 289 281 251 181 142 120 110 108 106 109 116 124 127 124 120 118 116 116 117 115 110 105 104
183 209 274 280 302 297 268 240 247 261 266 269 278 287 308 316 320 318 318 312 303 295 276 160 122 114 108 108 111 109 111 113 116 118 116 115 115 114 115 117 112 109 109 109
184 191 234 290 309 285 187 172 219 259 274 270 276 297 314 324 358 18 2 339 333 348 93 101 101 99 99 103 103 104 106 109 111 112 112 114 116 118 118 113 109 109 110 110
189 190 234 277 291 277 276 190 221 266 285 305 315 320 326 327 77 30 15 21 41 63 81 88 94 99 100 102 105 107 107 107 110 112 115 119 122 121 116 110 108 108 106 104
196 190 218 250 286 282 337 86 126 247 262 24 356 341 337 349 21 14 25 45 59 68 78 87 92 97 99 101 107 109 111 112 112 115 116 116 116 114 110 107 103 99 99 103
178 195 217 233 254 273 297 325 300 288 314 348 360 3 9 53 72 73 64 70 75 79 84 90 95 99 105 110 112 113 113 114 116 115 113 110 108 105 103 100 97 99 102 107
184 194 200 202 225 255 297 335 321 302 327 347 12 56 83 97 92 87 83 84 93 99 102 105 108 110 114 119 120 116 114 116 115 112 107 103 98 99 100 99 95 94 93 83
203 211 205 211 233 282 327 342 7 18 346 355 30 105 120 113 105 101 95 89 89 95 102 105 106 104 102 103 113 112 111 112 110 105 100 96 90 88 92 96 98 89 74 68
224 137 269 277 273 286 11 58 40 37 18 21 56 117 126 121 116 110 107 103 100 96 96 101 103 102 98 95 98 106 111 111 107 102 98 96 94 89 79 74 73 77 68 55
279 205 235 261 274 278 100 68 49 61 66 62 62 86 114 123 120 117 112 110 107 101 97 102 106 105 104 103 99 99 103 105 101 98 95 91 88 93 91 83 75 73 82 87
222 221 226 248 320 12 47 75 66 85 90 95 97 93 96 109 115 113 109 105 105 105 105 105 105 105 103 100 95 91 93 99 103 100 94 90 89 84 84 81 72 111 113 88
Height
1468 1470 1470 1467 1467 1467 1466 1470 1469 1461 1455 1458 1459 1456 1453 1450 1448 1446 1445 1445 1446 1446 1447 1448 1449 1451 1453 1456 1459 1461 1462 1464 1467 1470 1473 1476 1480 1484 1488 1490 1493 1496 1499 1502
1471 1470 1464 1461 1462 1465 1469 1473 1472 1466 1459 1460 1458 1452 1448 1442 1438 1437 1437 1438 1439 1440 1441 1442 1443 1444 1446 1448 1451 1454 1456 1458 1460 1463 1468 1472 1476 1479 1482 1485 1488 1492 1496 1498
1466 1465 1463 1464 1465 1469 1472 1474 1473 1471 1466 1463 1462 1450 1438 1426 1425 1427 1429 1430 1432 1433 1434 1435 1436 1437 1439 1441 1444 1446 1449 1452 1454 1458 1463 1467 1469 1472 1475 1479 1483 1488 1492 1495
1465 1463 1465 1465 1466 1468 1472 1468 1470 1471 1475 1473 1465 1463 1436 1426 1422 1421 1421 1422 1424 1426 1427 1428 1429 1430 1431 1433 1437 1440 1443 1446 1448 1452 1455 1457 1459 1462 1466 1471 1477 1483 1488 1491
1463 1462 1464 1467 1466 1467 1470 1471 1474 1474 1476 1478 1470 1471 1437 1426 1423 1418 1415 1415 1417 1419 1421 1421 1422 1423 1424 1426 1429 1432 1436 1439 1441 1444 1448 1451 1454 1456 1460 1466 1473 1478 1483 1487
1459 1462 1464 1465 1465 1467 1469 1475 1478 1478 1480 1485 1467 1463 1438 1422 1414 1410 1410 1411 1412 1414 1415 1415 1416 1416 1418 1419 1421 1424 1427 1430 1433 1438 1442 1445 1447 1449 1454 1459 1467 1473 1478 1482
1464 1463 1464 1466 1467 1470 1472 1480 1485 1482 1482 1473 1453 1447 1429 1411 1407 1407 1408 1409 1410 1410 1411 1411 1411 1412 1413 1414 1415 1416 1419 1421 1425 1431 1436 1439 1441 1444 1448 1453 1460 1465 1471 1477
1468 1464 1460 1464 1467 1470 1473 1477 1481 1477 1466 1451 1436 1433 1416 1402 1401 1401 1402 1404 1405 1406 1407 1408 1408 1408 1409 1409 1409 1410 1412 1415 1419 1425 1430 1434 1437 1439 1443 1449 1455 1461 1467 1472
1461 1459 1456 1461 1465 1465 1471 1475 1471 1474 1469 1465 1444 1425 1411 1401 1397 1396 1397 1397 1399 1401 1403 1403 1404 1404 1405 1405 1405 1405 1407 1410 1414 1420 1425 1430 1433 1435 1440 1447 1453 1458 1463 1469
1454 1460 1457 1460 1464 1466 1466 1468 1475 1480 1483 1465 1438 1423 1415 1401 1400 1397 1395 1394 1395 1397 1398 1399 1400 1400 1400 1400 1400 1400 1402 1405 1410 1415 1420 1425 1429 1433 1439 1444 1450 1455 1460 1466
1453 1460 1460 1462 1464 1464 1468 1469 1470 1471 1467 1467 1450 1425 1400 1400 1398 1398 1396 1394 1393 1394 1395 1396 1396 1396 1396 1396 1395 1396 1398 1401 1406 1410 1416 1421 1426 1431 1436 1442 1447 1453 1458 1464
1453 1459 1461 1460 1456 1457 1458 1463 1467 1473 1468 1458 1451 1426 1402 1399 1396 1396 1396 1394 1392 1392 1392 1393 1393 1393 1392 1392 1391 1391 1394 1397 1400 1406 1412 1418 1424 1429 1434 1440 1445 1451 1456 1462
1452 1458 1465 1457 1460 1456 1456 1455 1456 1460 1461 1455 1448 1423 1400 1397 1396 1397 1397 1394 1391 1390 1389 1389 1389 1389 1389 1388 1388 1388 1390 1392 1397 1404 1410 1416 1422 1427 1432 1438 1444 1449 1455 1461
1450 1455 1461 1454 1450 1453 1456 1454 1452 1457 1455 1445 1433 1414 1401 1397 1395 1394 1393 1391 1388 1386 1385 1384 1384 1385 1386 1386 1386 1387 1388 1391 1396 1403 1409 1415 1420 1426 1431 1437 1443 1449 1455 1460
1451 1455 1455 1453 1448 1448 1448 1446 1445 1447 1445 1439 1423 1414 1400 1394 1391 1388 1385 1384 1383 1381 1380 1380 1381 1382 1383 1384 1384 1386 1388 1393 1398 1404 1410 1414 1419 1425 1430 1436 1442 1449 1454 1459
1450 1453 1451 1449 1441 1438 1436 1433 1431 1429 1427 1424 1417 1406 1395 1390 1386 1383 1381 1380 1378 1377 1376 1377 1378 1379 1381 1382 1384 1386 1390 1395 1400 1405 1409 1414 1419 1424 1430 1436 1443 1449 1454 1458
1448 1451 1453 1446 1434 1433 1428 1421 1423 1422 1418 1416 1410 1401 1392 1387 1383 1381 1379 1377 1375 1374 1374 1374 1376 1378 1379 1382 1385 1389 1393 1398 1402 1406 1410 1414 1419 1425 1432 1439 1445 1450 1454 1457
1445 1448 1450 1446 1439 1431 1419 1414 1416 1416 1411 1406 1402 1396 1391 1387 1385 1383 1380 1377 1375 1373 1373 1374 1376 1378 1381 1384 1388 1392 1396 1400 1403 1407 1411 1416 1422 1429 1435 1441 1446 1450 1453 1456
1441 1445 1447 1445 1439 1427 1413 1411 1411 1412 1408 1401 1399 1394 1390 1385 1384 1384 1382 1378 1377 1376 1376 1377 1378 1380 1383 1387 1390 1393 1397 1402 1406 1409 1414 1420 1427 1433 1438 1442 1446 1449 1452 1454
1437 1441 1445 1442 1438 1427 1412 1408 1407 1410 1406 1399 1396 1393 1390 1386 1386 1390 1387 1383 1380 1380 1379 1380 1382 1384 1387 1391 1394 1397 1401 1406 1410 1415 1420 1426 1432 1437 1440 1443 1447 1449 1452 1453
1436 1438 1440 1439 1436 1424 1408 1406 1405 1409 1405 1398 1395 1393 1391 1391 1393 1394 1391 1388 1386 1384 1384 1385 1387 1389 1393 1396 1399 1402 1406 1410 1415 1420 1425 1431 1435 1439 1442 1444 1447 1449 1450 1451
1428 1430 1431 1432 1431 1424 1405 1404 1405 1404 1399 1397 1395 1393 1393 1393 1394 1394 1394 1393 1392 1391 1390 1391 1392 1395 1399 1402 1404 1407 1411 1416 1421 1426 1431 1434 1438 1441 1443 1445 1447 1448 1449 1450
1417 1417 1417 1419 1417 1405 1402 1401 1401 1399 1397 1396 1395 1393 1393 1394 1396 1396 1397 1397 1398 1398 1399 1400 1401 1402 1406 1410 1413 1414 1418 1423 1427 1431 1434 1437 1440 1442 1444 1445 1447 1448 1448 1448
1412 1412 1414 1413 1406 1401 1400 1399 1399 1397 1396 1394 1394 1394 1394 1394 1396 1398 1399 1400 1401 1403 1404 1405 1407 1408 1412 1416 1419 1421 1424 1428 1431 1434 1436 1439 1441 1443 1444 1445 1446 1446 1446 1446
1413 1412 1412 1410 1404 1399 1399 1398 1398 1396 1395 1394 1394 1394 1395 1395 1397 1399 1400 1402 1404 1405 1407 1410 1411 1413 1417 1421 1424 1426 1429 1432 1434 1436 1438 1440 1442 1444 1445 1445 1446 1445 1445 1444
1409 1409 1410 1406 1401 1401 1400 1398 1397 1396 1395 1395 1395 1395 1397 1397 1398 1400 1402 1404 1405 1407 1410 1413 1415 1418 1421 1424 1427 1431 1433 1436 1437 1438 1440 1442 1443 1444 1444 1445 1445 1444 1444 1442